CDN224 CYYC-CYVR

Flight info

Callsign CDN224
Flight time N/A
Altitude 36000
Route BOTAG Q894 BOOTH CANUC6
Aircraft A320/M-SDE3FGHIRWY/LB1

Departure

Time 2026-05-04 03:27
Airport Calgary International Airport (CYYC)

Arrival

Time N/A
Airport Vancouver International Airport (CYVR)
Time Latitude Longitude Altitude Speed Heading
2026-05-04 03:06 51.13328 -114.01408 3560 ft 0 kts 180°
2026-05-04 03:07 51.13329 -114.01408 3559 ft 0 kts 180°
2026-05-04 03:14 51.13330 -114.01408 3532 ft 2 kts 180°
2026-05-04 03:14 51.13356 -114.01407 3559 ft 4 kts 182°
2026-05-04 03:15 51.13381 -114.01406 3558 ft 2 kts 177°
2026-05-04 03:15 51.13404 -114.01408 3558 ft 4 kts 177°
2026-05-04 03:15 51.13424 -114.01409 3557 ft 4 kts 175°
2026-05-04 03:15 51.13451 -114.01416 3556 ft 4 kts 164°
2026-05-04 03:16 51.13477 -114.01426 3558 ft 3 kts 176°
2026-05-04 03:16 51.13481 -114.01427 3558 ft 0 kts 179°
2026-05-04 03:17 51.13473 -114.01427 3558 ft 5 kts 181°
2026-05-04 03:18 51.13430 -114.01497 3556 ft 10 kts 259°
2026-05-04 03:18 51.13399 -114.01639 3556 ft 18 kts 245°
2026-05-04 03:18 51.13327 -114.01829 3556 ft 20 kts 207°
2026-05-04 03:18 51.13201 -114.01855 3559 ft 18 kts 180°
2026-05-04 03:19 51.13087 -114.01820 3559 ft 17 kts 155°
2026-05-04 03:19 51.12976 -114.01792 3559 ft 16 kts 181°
2026-05-04 03:19 51.12814 -114.01796 3557 ft 30 kts 180°
2026-05-04 03:19 51.12613 -114.01795 3558 ft 28 kts 179°
2026-05-04 03:20 51.12425 -114.01789 3558 ft 26 kts 180°
2026-05-04 03:20 51.12254 -114.01799 3558 ft 23 kts 182°
2026-05-04 03:20 51.12097 -114.01796 3557 ft 21 kts 179°
2026-05-04 03:20 51.11957 -114.01796 3560 ft 19 kts 181°
2026-05-04 03:21 51.11829 -114.01800 3559 ft 18 kts 181°
2026-05-04 03:21 51.11714 -114.01802 3559 ft 16 kts 180°
2026-05-04 03:21 51.11613 -114.01804 3559 ft 14 kts 180°
2026-05-04 03:21 51.11519 -114.01800 3559 ft 14 kts 178°
2026-05-04 03:22 51.11388 -114.01797 3559 ft 29 kts 179°
2026-05-04 03:22 51.11186 -114.01797 3558 ft 28 kts 181°
2026-05-04 03:22 51.10994 -114.01798 3559 ft 27 kts 180°
2026-05-04 03:22 51.10817 -114.01797 3559 ft 24 kts 180°
2026-05-04 03:23 51.10658 -114.01799 3559 ft 22 kts 180°
2026-05-04 03:23 51.10511 -114.01801 3559 ft 21 kts 180°
2026-05-04 03:23 51.10370 -114.01799 3559 ft 20 kts 179°
2026-05-04 03:23 51.10225 -114.01799 3557 ft 20 kts 180°
2026-05-04 03:24 51.10090 -114.01800 3559 ft 18 kts 180°
2026-05-04 03:24 51.09971 -114.01800 3559 ft 16 kts 180°
2026-05-04 03:24 51.09864 -114.01798 3557 ft 14 kts 179°
2026-05-04 03:24 51.09770 -114.01798 3559 ft 12 kts 180°
2026-05-04 03:25 51.09700 -114.01840 3557 ft 11 kts 234°
2026-05-04 03:25 51.09689 -114.01948 3559 ft 9 kts 266°
2026-05-04 03:25 51.09688 -114.02029 3560 ft 6 kts 270°
2026-05-04 03:25 51.09688 -114.02107 3561 ft 7 kts 273°
2026-05-04 03:26 51.09720 -114.02143 3561 ft 7 kts 360°
2026-05-04 03:26 51.09917 -114.02139 3561 ft 62 kts
2026-05-04 03:26 51.10579 -114.02136 3558 ft 124 kts
2026-05-04 03:26 51.11604 -114.02154 3644 ft 161 kts 358°
2026-05-04 03:27 51.12660 -114.02273 4478 ft 155 kts 349°
2026-05-04 03:27 51.13489 -114.03420 5122 ft 175 kts 296°
2026-05-04 03:27 51.13534 -114.05449 5645 ft 195 kts 269°
2026-05-04 03:27 51.13252 -114.07705 5909 ft 221 kts 263°
2026-05-04 03:28 51.12873 -114.10216 6176 ft 246 kts 263°
2026-05-04 03:28 51.12466 -114.13002 6588 ft 270 kts 263°
2026-05-04 03:28 51.12062 -114.15970 7189 ft 282 kts 263°
2026-05-04 03:28 51.11671 -114.19030 8126 ft 282 kts 264°
2026-05-04 03:29 51.11303 -114.22094 9094 ft 282 kts 264°
2026-05-04 03:29 51.10947 -114.25198 10069 ft 281 kts 264°
2026-05-04 03:29 51.10606 -114.28304 10524 ft 300 kts 264°
2026-05-04 03:29 51.10242 -114.31709 10767 ft 323 kts 264°
2026-05-04 03:30 51.09851 -114.35378 10951 ft 347 kts 264°
2026-05-04 03:30 51.09431 -114.39282 11094 ft 369 kts 263°
2026-05-04 03:30 51.08985 -114.43362 11572 ft 377 kts 263°
2026-05-04 03:30 51.08525 -114.47508 12276 ft 380 kts 262°